Location: Greenwich
(51.4790°N, 0.0090°E)
Time: 07:44:01
(UTC+01:00)

deb Delta 98 - Visible Passes

Search period start: 16 July 2024 00:00
Search period end: 26 July 2024 00:00
Orbit: 1008 x 1487 km, 101.5° (Epoch: 15 July)

Date Brightness Start Highest point End Pass type
(mag) Time Alt. Az. Time Alt. Az. Time Alt. Az.
20 Jul 9.4 04:21:13 10° NE 04:28:01 25° E 04:34:43 10° SE visible
21 Jul 9.4 04:18:00 10° NE 04:24:39 24° E 04:31:11 10° SE visible
22 Jul 9.5 04:14:48 10° NE 04:21:17 23° E 04:27:38 10° SE visible
23 Jul 9.5 04:11:37 10° NE 04:17:55 22° E 04:24:05 10° SE visible
24 Jul 9.5 04:08:27 10° NE 04:14:33 21° E 04:20:31 10° SE visible
25 Jul 9.5 04:05:17 10° NE 04:11:10 20° E 04:16:55 10° SE visible
